Weather History for KMLP - August, 2013

Change the Weather History Date:

Thursday, August 1, 2013

  Actual Average (K3TH) Record (K3TH)
Temperature  
Mean Temperature 54 °F -  
Max Temperature 61 °F 85 °F 93 °F (2000)
Min Temperature 46 °F 57 °F 45 °F (2002)
Degree Days  
Heating Degree Days 12    
Growing Degree Days 4 (Base 50)    
Moisture  
Dew Point 47 °F    
Average Humidity 83    
Maximum Humidity 100    
Minimum Humidity 42    
Precipitation  
Precipitation 0.00 in - - ()
Sea Level Pressure  
Sea Level Pressure 29.93 in    
Wind  
Wind Speed 6 mph (SE)    
Max Wind Speed 18 mph    
Max Gust Speed 26 mph    
Visibility 7 miles    
Events Fog , Rain    
Averages and records for this station are not official NWS values.
T = Trace of Precipitation, MM = Missing Value Source: NWS Daily Summary

Daily Weather History Graph

Daily Weather History Graph

Search for Another Location

Airport or City:

Trip Planner

Search our weather history database for the weather conditions in past years. The results will help you decide how hot, cold, wet, or windy it might be!

Date:

Astronomy

Aug. 01, 2013 Rise Set
Actual Time 5:21 AM PDT 8:16 PM PDT
Civil Twilight 4:45 AM PDT 8:51 PM PDT
Nautical Twilight 3:59 AM PDT 9:37 PM PDT
Astronomical Twilight 3:03 AM PDT 10:32 PM PDT
Moon 12:58 AM PDT (8/1) 4:31 PM PDT (8/1)
Length of Visible Light 16h 06m
Length of Day
14h 55m
Waning Crescent, 22% of the Moon is Illuminated
Aug 1
Waning Crescent
Aug 6
New
Aug 14
First Quarter
Aug 20
Full
Aug 28
Last Quarter

Hourly Weather History & Observations

Time (PDT) Temp. Windchill Dew Point Humidity Pressure Visibility Wind Dir Wind Speed Gust Speed Precip Events Conditions
12:53 AM 61.0 °F - 37.9 °F 42% 29.85 in 10.0 mi ESE 6.9 mph - N/A   Scattered Clouds
1:53 AM 57.9 °F - 39.9 °F 51% 29.86 in 10.0 mi Variable 5.8 mph 19.6 mph N/A   Partly Cloudy
2:53 AM 57.0 °F - 39.9 °F 53% 29.84 in 10.0 mi Calm Calm - N/A   Clear
3:53 AM 57.0 °F - 39.9 °F 53% 29.82 in 10.0 mi SE 6.9 mph - N/A   Clear
4:53 AM 55.9 °F - 41.0 °F 57% 29.82 in 10.0 mi East 8.1 mph - N/A   Clear
5:53 AM 57.0 °F - 41.0 °F 55% 29.82 in 10.0 mi ESE 9.2 mph - N/A   Clear
6:53 AM 57.9 °F - 41.0 °F 53% 29.83 in 10.0 mi ESE 8.1 mph - N/A   Partly Cloudy
7:53 AM 55.0 °F - 42.1 °F 62% 29.83 in 10.0 mi SE 6.9 mph - N/A   Mostly Cloudy
8:21 AM 50.0 °F - 46.4 °F 87% 30.13 in 1.8 mi SE 18.4 mph 26.5 mph 0.00 in Rain Heavy Rain
8:31 AM 50.0 °F - 46.4 °F 87% 30.11 in 3.0 mi SSE 16.1 mph 26.5 mph N/A Rain Light Rain
8:53 AM 52.0 °F - 46.0 °F 80% 29.87 in 7.0 mi SE 5.8 mph 19.6 mph N/A Rain Light Rain
9:53 AM 53.1 °F - 44.1 °F 71% 29.88 in 8.0 mi WNW 4.6 mph - N/A Rain Light Rain
10:53 AM 54.0 °F - 42.1 °F 64% 29.86 in 10.0 mi Calm Calm - N/A   Overcast
11:53 AM 52.0 °F - 46.0 °F 80% 29.87 in 10.0 mi Calm Calm - N/A   Overcast
12:53 PM 52.0 °F - 50.0 °F 93% 29.87 in 10.0 mi East 4.6 mph - N/A   Overcast
1:23 PM 55.4 °F - 51.8 °F 88% 30.12 in 10.0 mi Variable 4.6 mph - N/A   Mostly Cloudy
1:53 PM 55.9 °F - 51.1 °F 84% 29.86 in 10.0 mi ESE 6.9 mph - N/A   Partly Cloudy
2:53 PM 52.0 °F - 51.1 °F 97% 29.86 in 3.0 mi Variable 6.9 mph - N/A   Overcast
3:09 PM 51.8 °F - 51.8 °F 100% 30.10 in 9.0 mi SE 9.2 mph - N/A   Overcast
3:16 PM 51.8 °F - 50.0 °F 94% 30.10 in 10.0 mi SE 6.9 mph - N/A   Overcast
3:53 PM 52.0 °F - 48.9 °F 89% 29.85 in 10.0 mi SE 9.2 mph - N/A   Overcast
4:53 PM 55.9 °F - 48.0 °F 75% 29.81 in 10.0 mi SE 10.4 mph 19.6 mph N/A   Partly Cloudy
5:48 PM 55.4 °F - 50.0 °F 82% 30.05 in 10.0 mi Calm Calm - N/A   Mostly Cloudy
5:53 PM 54.0 °F - 50.0 °F 86% 29.80 in 10.0 mi Calm Calm - N/A   Mostly Cloudy
6:25 PM 53.6 °F - 51.8 °F 94% 30.05 in 10.0 mi Calm Calm - N/A   Overcast
6:37 PM 53.6 °F - 50.0 °F 88% 30.04 in 10.0 mi Variable 3.5 mph - N/A   Mostly Cloudy
6:53 PM 53.1 °F - 50.0 °F 89% 29.80 in 10.0 mi Calm Calm - N/A   Mostly Cloudy
7:53 PM 52.0 °F - 48.9 °F 89% 29.81 in 10.0 mi ESE 4.6 mph - N/A   Overcast
8:53 PM 53.1 °F - 48.0 °F 83% 29.82 in 10.0 mi Calm Calm - N/A   Mostly Cloudy
9:30 PM 51.8 °F - 48.2 °F 88% 30.04 in 2.5 mi WNW 4.6 mph - N/A   Overcast
9:33 PM 51.8 °F - 50.0 °F 94% 30.05 in 1.2 mi NNW 3.5 mph - N/A Rain Light Rain
9:38 PM 51.8 °F - 50.0 °F 94% 30.05 in 0.8 mi Calm Calm - N/A Rain Light Rain
9:53 PM 50.0 °F - 50.0 °F 100% 29.82 in 0.2 mi Variable 3.5 mph - N/A Fog , Rain Heavy Rain
10:12 PM 48.2 °F - 48.2 °F 100% 30.05 in 0.5 mi Variable 4.6 mph - N/A Fog , Rain Heavy Rain
10:18 PM 48.2 °F - 48.2 °F 100% 30.05 in 0.2 mi Variable 5.8 mph - N/A Fog , Rain Heavy Rain
10:53 PM 46.9 °F - 46.9 °F 100% 29.83 in 0.2 mi Variable 5.8 mph - N/A Fog , Rain Heavy Rain
11:04 PM 46.4 °F 41.9 °F 46.4 °F 100% 30.03 in 0.5 mi SW 9.2 mph - N/A Fog , Rain Rain
11:20 PM 46.4 °F 42.4 °F 46.4 °F 100% 30.02 in 0.2 mi WSW 8.1 mph 17.3 mph N/A Fog , Rain Light Rain
11:41 PM 46.4 °F 43.5 °F 46.4 °F 100% 30.02 in 0.2 mi Variable 5.8 mph - N/A Fog , Rain Light Rain
11:53 PM 46.9 °F - 46.9 °F 100% 29.83 in 0.2 mi Variable 5.8 mph - N/A Fog , Rain Light Rain